Voltar ao catálogo

QIANFAN-207

AtivoComunicaçõesPO
NORAD 69806·PAYLOAD·🇨🇳 China

Lançado Jul 4, 2026 de Taiyuan Satellite Launch Center

Loading…

Próximas Passagens (próximas 24 horas)

TLE

AtualizadoSource: Space-Track

Época: Sep 14, 2026, 19:29 UTC

1 69806U 26153G   26257.81230638 -.02062840  00000-0 -14312+1 0  9994
2 69806  88.9974 352.0922 0008612 312.2040  47.8409 14.03086046 10250

Acompanhe QIANFAN-207 em tempo real com AllMySat

Download on the App Store